Theta_e
336 338 334 333 334 334 333 333 336 335 335 334 335 335 334 334 332 331 330 331 334 335 336 333 334 337 336 335 333 333 334 335 335 334 335 336 336 336 334 334 336 337 336
337 338 334 334 330 333 334 333 335 336 336 335 335 333 333 333 331 330 329 330 330 331 331 332 332 332 332 331 331 331 330 331 331 331 331 331 331 332 332 332 335 336 336
338 338 335 334 334 333 333 333 335 336 337 336 335 333 333 332 331 330 330 329 330 329 331 331 331 330 330 329 329 329 329 329 328 331 332 333 334 334 333 331 330 334 334
339 335 336 334 330 333 334 333 334 337 337 336 333 332 332 332 330 330 330 330 330 329 329 329 329 328 329 329 327 326 327 332 332 332 332 331 331 333 332 332 331 330 327
336 336 336 329 328 333 333 331 337 337 336 334 332 331 331 332 330 329 331 331 329 328 328 328 328 328 328 327 327 327 327 328 329 330 330 329 329 331 331 331 330 329 329
338 336 329 327 324 327 331 331 336 336 335 333 328 330 330 332 328 327 328 328 328 329 327 329 328 327 325 325 326 325 325 325 326 327 327 328 327 328 329 328 328 326 326
339 336 333 328 327 327 328 331 333 335 334 333 330 328 329 330 327 328 329 329 326 328 329 328 327 326 325 324 323 324 325 325 326 326 326 327 326 327 328 327 326 324 323
338 336 334 330 327 325 326 331 330 333 334 333 330 326 326 329 328 327 326 328 328 326 327 326 325 324 324 323 323 323 323 324 323 324 324 325 322 324 322 321 321 321 321
338 337 334 333 329 326 325 326 328 332 334 332 330 327 325 327 328 326 325 328 330 328 324 325 324 325 323 323 323 323 321 321 323 324 324 323 321 324 322 322 320 319 319
338 338 336 334 332 332 329 326 326 328 332 331 328 325 323 322 326 325 323 326 326 325 325 324 324 323 322 322 322 322 320 323 323 322 321 320 319 322 321 318 318 318 317
336 337 337 335 333 332 332 327 326 327 329 330 327 323 326 326 326 326 326 324 325 324 324 324 324 323 322 322 322 321 322 323 322 321 321 316 319 320 319 317 316 316 315
336 337 337 336 335 333 331 329 331 331 330 330 330 327 329 327 325 326 325 323 324 323 323 323 324 323 323 324 323 320 323 322 321 321 320 316 318 318 318 316 315 314 314
336 337 336 337 336 334 332 332 332 331 331 331 331 330 328 326 323 324 325 323 323 322 323 322 322 323 323 322 322 322 323 322 321 320 319 316 317 318 317 316 315 313 313
336 336 335 336 336 336 334 333 333 332 331 331 331 330 328 326 326 325 325 325 324 322 323 323 322 322 322 322 322 323 323 322 321 320 320 317 316 317 317 316 315 315 314
335 335 335 335 335 335 335 334 334 333 332 331 330 330 328 326 326 325 325 325 324 322 322 322 321 321 321 321 322 323 323 323 322 321 320 319 316 316 317 317 316 315 313
334 335 335 335 334 334 334 333 333 333 333 332 330 330 328 327 326 325 325 324 323 323 322 321 321 321 321 321 321 322 323 322 322 321 321 320 319 316 316 318 317 316 316
333 334 335 335 335 333 333 333 332 331 333 332 331 330 328 327 326 325 325 324 324 322 321 320 320 319 320 320 320 321 321 321 321 320 320 320 319 318 316 316 317 317 316
332 334 336 336 336 334 333 333 332 332 331 331 331 331 329 328 326 324 323 323 323 321 321 320 319 317 316 317 318 319 319 318 319 319 318 318 318 318 318 317 315 316 317
332 333 335 336 335 334 333 333 333 332 332 331 331 330 331 329 327 325 324 323 322 321 320 318 316 317 317 317 316 317 317 317 317 317 317 317 317 317 317 317 316 315 314
330 332 333 335 336 335 333 332 333 332 332 332 331 330 330 330 329 327 325 323 323 321 321 320 319 317 316 316 317 316 316 316 317 316 316 316 316 316 316 316 316 316 315
316 328 331 333 335 335 332 333 332 332 332 332 332 331 331 330 330 328 326 325 325 322 321 322 321 319 317 316 313 315 315 315 315 315 314 314 315 315 315 315 315 315 315
310 314 324 330 332 334 333 332 332 332 332 332 331 331 331 331 331 329 327 326 325 323 322 321 321 319 317 316 314 313 314 318 318 318 317 315 315 314 314 313 314 313 313
310 309 312 320 327 331 333 331 331 332 331 331 331 331 330 330 330 330 329 327 325 324 323 322 320 320 317 316 316 314 312 313 317 320 318 316 315 313 313 313 313 313 312
314 311 307 313 319 325 330 331 330 329 329 329 328 328 328 327 328 329 330 329 329 327 326 326 323 321 319 316 315 314 314 314 312 313 316 316 316 313 313 312 312 313 312
314 317 312 308 315 320 324 327 328 327 327 326 327 328 328 327 327 327 328 328 328 328 327 327 325 323 321 318 316 315 313 310 310 307 313 314 314 314 315 314 313 312 313
312 313 316 319 317 315 320 324 325 324 324 325 325 325 327 327 327 329 328 328 327 327 327 326 325 323 322 320 319 316 314 313 307 307 306 309 310 311 313 314 313 313 312
Wind_Speed
15 14 11 9 9 8 9 9 11 12 13 14 14 14 15 16 16 16 15 14 11 13 13 12 13 17 19 20 20 21 21 21 22 21 22 22 21 21 20 20 21 20 20
18 15 12 10 9 10 10 10 11 14 14 14 14 14 16 17 16 16 15 18 15 12 13 14 14 13 14 15 15 14 15 16 17 18 18 17 16 17 18 17 20 21 23
17 16 14 13 13 12 13 11 11 13 14 14 14 14 16 16 17 15 16 17 17 16 15 15 15 14 13 14 12 12 13 15 17 16 17 18 18 17 18 17 15 17 18
15 13 12 11 13 14 13 11 11 14 14 13 15 15 15 16 16 15 14 14 16 15 15 15 15 15 14 15 17 19 19 17 18 18 17 16 17 18 18 16 16 15 13
16 12 12 12 12 14 13 12 13 14 12 13 14 14 14 14 14 14 13 13 15 14 14 13 15 15 17 16 18 17 17 19 17 14 14 14 15 16 16 17 18 17 17
15 12 13 12 13 13 13 13 13 14 11 11 12 13 14 13 13 13 14 11 11 13 13 14 15 15 15 14 13 13 15 13 11 11 11 12 13 13 14 14 15 15 16
14 12 12 12 12 12 14 13 13 13 10 10 8 10 13 13 13 13 12 12 8 12 13 14 14 12 12 12 11 13 13 12 11 11 11 12 11 12 13 12 12 9 10
15 13 11 11 11 11 12 12 11 12 10 8 8 8 12 12 11 9 13 9 8 10 13 13 11 11 10 9 9 10 11 9 9 10 10 10 8 8 5 4 4 6 7
14 13 12 11 10 10 11 11 11 12 9 7 7 8 11 12 11 9 10 10 9 8 11 12 10 10 8 8 8 7 6 8 9 9 10 9 8 9 8 7 5 5 5
14 12 12 11 11 9 9 10 10 11 11 7 6 7 9 10 10 9 8 10 7 6 5 9 8 7 6 5 5 4 8 9 7 6 7 6 6 7 7 2 3 5 5
14 13 12 12 11 10 9 9 10 10 9 6 4 5 10 5 6 8 6 9 8 6 5 4 6 7 5 3 3 3 5 3 3 4 3 5 4 5 5 4 4 3 4
18 14 12 12 11 11 9 9 8 7 7 6 5 5 4 5 5 5 5 7 8 6 5 4 4 7 5 1 0 1 2 1 2 2 1 3 3 3 3 3 3 3 3
20 17 15 15 13 12 10 10 9 8 7 7 7 7 5 5 6 5 4 4 4 5 3 1 5 2 3 2 2 2 1 1 1 1 4 2 0 2 2 3 3 4 3
19 19 17 16 16 14 12 11 9 9 9 8 9 9 7 6 6 6 5 5 5 4 4 3 3 3 3 3 3 3 4 4 3 3 6 6 5 5 6 7 6 7 7
19 18 18 17 16 16 14 13 12 11 10 9 9 10 8 7 7 7 7 7 6 6 5 5 5 4 5 5 5 5 6 7 7 6 6 12 10 8 8 9 9 10 10
19 19 18 18 17 16 17 18 14 12 10 11 10 10 12 9 8 8 8 8 7 7 7 6 6 6 7 7 7 8 9 9 9 9 9 11 14 14 12 12 13 13 12
20 19 20 19 18 19 19 19 16 14 13 11 11 11 11 11 10 9 9 8 8 8 9 8 9 10 9 8 9 9 10 11 12 12 13 12 13 15 17 17 16 16 17
18 19 18 18 18 20 20 20 19 18 17 18 13 10 13 13 12 14 15 14 13 14 11 10 10 11 13 13 11 11 13 14 16 18 19 18 16 16 17 19 22 21 21
18 18 20 20 19 20 21 20 19 17 18 16 16 15 12 13 13 13 14 16 16 16 17 17 15 15 13 13 14 15 16 18 19 21 25 25 26 25 23 21 23 25 28
17 18 20 20 20 18 19 21 20 21 21 18 17 19 15 15 14 15 14 13 14 15 17 18 20 18 20 19 15 18 18 20 21 23 26 25 29 29 30 29 27 29 30
15 19 21 22 21 19 20 19 21 22 22 23 24 24 23 20 15 17 17 15 17 21 21 19 17 18 19 19 13 18 24 26 27 29 30 29 30 28 30 31 32 32 31
11 14 18 21 20 20 22 21 17 17 20 24 25 25 25 24 22 18 19 19 18 24 25 26 24 21 22 20 11 7 3 9 21 30 31 32 33 27 31 32 33 35 37
2 8 13 16 18 18 16 17 18 15 13 13 18 21 23 22 23 25 22 21 20 23 26 25 25 30 23 21 25 13 2 5 6 13 24 26 27 28 29 30 34 36 39
4 1 7 11 14 16 16 16 15 14 13 13 14 16 18 18 18 21 24 28 27 27 30 31 30 30 29 23 21 29 33 17 3 3 11 19 23 27 31 32 34 38 40
7 8 7 8 9 10 12 13 11 14 12 10 9 8 11 15 16 17 18 20 23 26 28 30 30 30 31 29 25 21 22 26 22 12 10 15 22 31 34 38 36 38 38
10 11 12 12 10 8 8 9 8 6 7 8 7 8 6 8 9 10 14 18 22 24 26 28 28 31 32 33 31 27 26 16 8 14 10 13 18 25 30 36 39 41 42
Wind_Direction
144 142 141 139 143 131 118 116 112 106 100 89 85 85 87 92 92 82 68 75 86 73 72 76 84 74 77 78 74 74 78 80 81 76 74 69 65 66 73 74 74 72 77
142 141 148 140 129 137 135 116 115 115 104 100 90 86 89 88 87 87 81 82 87 91 86 85 88 93 84 88 86 87 82 80 73 63 59 59 63 65 70 82 80 78 75
134 139 142 146 144 137 129 124 121 121 114 101 98 90 94 92 87 87 88 84 82 81 82 85 87 90 95 92 92 100 95 92 88 77 84 78 74 79 74 73 73 76 77
133 137 139 148 144 137 133 128 123 125 112 97 91 91 97 95 89 90 94 91 83 83 84 85 85 85 90 92 87 89 89 83 82 90 76 75 74 69 73 74 81 83 83
136 136 145 142 140 140 139 137 122 129 117 99 96 96 103 101 100 97 93 93 84 81 84 86 87 91 89 88 91 89 90 79 73 71 69 72 73 69 70 74 79 88 89
137 138 144 139 137 141 142 139 130 132 118 102 100 100 105 105 100 102 100 88 87 84 94 94 91 90 89 96 103 100 95 82 76 72 69 68 69 72 74 72 77 80 82
138 142 140 141 138 136 144 144 144 130 124 122 101 98 108 113 113 109 108 101 83 94 99 89 88 90 92 98 97 103 95 73 73 69 68 70 75 67 70 72 74 76 72
143 140 142 144 141 140 144 146 144 138 143 131 112 106 114 120 115 114 116 105 108 95 101 88 91 90 99 94 94 101 81 72 59 66 70 65 61 67 68 81 78 68 75
149 146 146 146 149 146 144 149 145 140 144 144 128 128 125 130 131 125 126 97 108 109 113 107 103 108 103 102 101 101 70 69 65 69 72 70 52 79 82 72 74 69 95
158 156 154 153 150 148 147 149 150 152 152 162 141 140 131 129 140 136 116 125 100 94 103 131 137 138 132 122 105 88 66 65 65 63 83 60 50 81 77 70 103 90 90
173 170 168 164 163 160 155 161 159 163 169 165 146 132 98 121 123 118 155 136 130 128 111 123 168 152 146 139 126 97 81 64 52 54 52 39 76 90 97 112 110 111 104
180 174 184 177 176 170 165 169 163 169 167 161 155 146 145 140 152 163 151 154 152 127 147 146 165 148 121 171 254 88 32 54 38 45 126 48 88 110 123 138 153 160 151
185 185 186 184 187 182 180 176 178 183 181 186 182 180 175 163 161 148 158 152 152 146 165 184 145 165 235 233 237 246 199 275 335 332 225 328 122 182 192 183 191 194 187
195 194 192 188 189 192 192 190 193 191 191 192 194 192 185 177 178 178 177 180 183 189 200 199 215 224 238 246 238 229 219 238 255 249 253 257 275 222 213 214 208 210 211
201 204 202 198 195 196 196 198 200 202 202 202 201 203 196 196 190 189 192 190 194 198 201 210 213 221 230 234 237 233 236 244 252 253 254 270 261 268 230 232 230 229 229
204 207 206 207 207 203 203 208 203 204 209 208 210 210 205 203 201 199 200 201 203 207 212 213 217 226 235 236 239 239 240 247 252 255 262 275 274 260 252 241 240 238 237
206 206 207 208 209 211 211 214 213 209 207 213 219 219 217 214 214 210 210 209 212 215 213 218 225 228 238 248 250 251 251 254 254 256 257 256 270 273 256 246 245 243 243
209 208 207 205 208 212 215 216 221 228 232 224 215 225 225 224 220 223 226 233 227 222 218 224 231 241 244 245 249 250 253 253 254 255 253 251 249 247 264 261 248 242 243
214 213 210 208 209 210 213 220 220 225 229 235 237 228 227 229 229 231 238 240 242 241 243 239 242 241 252 253 257 257 258 258 254 262 262 260 258 253 246 248 257 252 244
222 218 218 216 216 213 213 219 227 233 232 229 236 241 239 235 237 235 238 238 240 239 245 245 245 247 250 251 255 260 262 262 263 256 258 262 263 258 255 249 245 251 250
224 223 221 218 217 213 214 209 219 225 235 247 251 252 255 253 237 238 241 240 239 244 244 249 249 246 253 255 263 267 273 270 260 260 263 260 258 259 252 251 251 246 248
231 224 225 223 218 215 221 219 216 228 237 250 256 259 258 257 249 238 241 243 244 255 256 249 248 246 252 250 237 252 279 275 255 262 260 258 257 254 255 255 252 254 254
232 223 223 222 219 215 212 228 228 226 231 235 246 253 262 264 261 251 245 246 247 255 263 264 254 256 250 261 253 235 248 231 293 254 249 254 258 258 257 252 256 260 260
52 89 203 207 208 208 208 210 217 223 233 247 255 263 269 271 269 266 265 259 262 261 266 271 272 263 257 248 251 250 245 262 281 304 257 264 265 259 260 258 261 263 266
74 82 104 155 177 188 200 209 212 231 236 249 257 262 268 279 278 276 275 273 270 270 272 273 272 271 266 253 244 251 257 256 253 242 280 266 262 266 268 269 267 264 263
77 77 87 99 107 132 160 185 199 207 232 247 260 269 275 270 289 282 275 281 283 282 279 283 283 276 275 265 264 252 242 244 235 227 249 271 268 271 263 263 264 265 267